• In Hungary
  • List of Countries
  • For 7 days
  • Water Temperature
  • Satellite Maps
  • Weather Map
  • News
  • Weather Widgets
  • user-avatar
    Login

    Hourly Weather Jesenik

    Today, 17 December, Sunday

    Time Temperature Precipitation Wind Pressure Humidity
    00:00 -2°C° 0 mm 2 mps 719 mmHg 87%
    01:00 -2°C° 0 mm 2 mps 719 mmHg 88%
    02:00 -2°C° 0.1 mm 2 mps 719 mmHg 88%
    03:00 -2°C° 0.1 mm 2 mps 720 mmHg 88%
    04:00 -2°C° 0.1 mm 2 mps 720 mmHg 88%
    05:00 -2°C° 0.1 mm 2 mps 720 mmHg 89%
    06:00 -2°C° 0.1 mm 2 mps 720 mmHg 90%
    07:00 -2°C° 0.1 mm 2 mps 721 mmHg 90%
    08:00 -2°C° 0.1 mm 2 mps 721 mmHg 88%
    09:00 -2°C° 0.1 mm 2 mps 721 mmHg 85%
    10:00 -1°C° 0.1 mm 2 mps 722 mmHg 83%
    11:00 -1°C° 0.1 mm 2 mps 722 mmHg 81%
    12:00 +1°C° 0.1 mm 2 mps 722 mmHg 79%
    13:00 +1°C° 0.1 mm 2 mps 722 mmHg 78%
    14:00 -1°C° 0.3 mm 2 mps 723 mmHg 81%
    15:00 +1°C° 0.3 mm 1 mps 723 mmHg 85%
    16:00 0°C° 0.3 mm 1 mps 723 mmHg 88%
    17:00 0°C° 0.4 mm 1 mps 724 mmHg 90%
    18:00 -2°C° 0.4 mm 2 mps 724 mmHg 91%
    19:00 -3°C° 0.4 mm 2 mps 724 mmHg 93%
    20:00 -3°C° 0.4 mm 2 mps 725 mmHg 93%
    21:00 -3°C° 0.4 mm 2 mps 725 mmHg 93%
    22:00 -4°C° 0.4 mm 2 mps 726 mmHg 94%
    23:00 -4°C° 0.2 mm 2 mps 726 mmHg 93%

    Tomorrow, 18 December, Monday

    Time Temperature Precipitation Wind Pressure Humidity
    00:00 -4°C° 0.2 mm 2 mps 726 mmHg 93%
    01:00 -4°C° 0.2 mm 2 mps 726 mmHg 93%
    02:00 -4°C° 0.1 mm 2 mps 726 mmHg 93%
    03:00 -5°C° 0.1 mm 2 mps 726 mmHg 92%
    04:00 -5°C° 0.1 mm 2 mps 726 mmHg 92%
    05:00 -3°C° 0 mm 1 mps 726 mmHg 92%
    06:00 -3°C° 0 mm 1 mps 726 mmHg 91%
    07:00 -3°C° 0 mm 1 mps 726 mmHg 91%
    08:00 -3°C° 0 mm 1 mps 727 mmHg 89%
    09:00 -2°C° 0 mm 1 mps 727 mmHg 86%
    10:00 -2°C° 0 mm 1 mps 727 mmHg 84%
    11:00 -1°C° 0 mm 1 mps 727 mmHg 82%
    12:00 -1°C° 0 mm 1 mps 727 mmHg 79%
    13:00 0°C° 0 mm 1 mps 727 mmHg 77%
    14:00 -1°C° 0 mm 1 mps 727 mmHg 80%
    15:00 -2°C° 0 mm 1 mps 727 mmHg 82%
    16:00 -3°C° 0 mm 1 mps 727 mmHg 85%
    17:00 -3°C° 0 mm 1 mps 727 mmHg 85%
    18:00 -3°C° 0 mm 1 mps 727 mmHg 86%
    19:00 -4°C° 0 mm 1 mps 728 mmHg 86%
    20:00 -4°C° 0 mm 1 mps 728 mmHg 85%
    21:00 -4°C° 0 mm 1 mps 728 mmHg 85%
    22:00 -4°C° 0 mm 1 mps 728 mmHg 85%
    23:00 -4°C° 0 mm 1 mps 729 mmHg 85%

    Day after tomorrow, 19 December, Tuesday

    Time Temperature Precipitation Wind Pressure Humidity
    00:00 -4°C° 0 mm 1 mps 729 mmHg 85%
    01:00 -4°C° 0 mm 1 mps 729 mmHg 85%
    02:00 -4°C° 0 mm 1 mps 729 mmHg 85%
    03:00 -4°C° 0 mm 1 mps 729 mmHg 85%
    04:00 -4°C° 0 mm 1 mps 730 mmHg 86%
    05:00 -4°C° 0 mm 1 mps 730 mmHg 86%
    06:00 -4°C° 0 mm 1 mps 730 mmHg 86%
    07:00 -4°C° 0 mm 1 mps 730 mmHg 86%
    08:00 -4°C° 0 mm 1 mps 731 mmHg 84%
    09:00 -3°C° 0 mm 1 mps 731 mmHg 83%
    10:00 -2°C° 0 mm 1 mps 732 mmHg 81%
    11:00 -1°C° 0 mm 1 mps 731 mmHg 80%
    12:00 -1°C° 0 mm 1 mps 731 mmHg 78%
    13:00 -2°C° 0 mm 2 mps 731 mmHg 77%
    14:00 -2°C° 0 mm 2 mps 731 mmHg 80%
    15:00 -3°C° 0 mm 2 mps 731 mmHg 83%
    16:00 -3°C° 0 mm 2 mps 731 mmHg 86%
    17:00 -3°C° 0.1 mm 2 mps 731 mmHg 87%
    18:00 -3°C° 0.1 mm 2 mps 730 mmHg 89%
    19:00 -3°C° 0.1 mm 2 mps 730 mmHg 90%
    20:00 -3°C° 0.2 mm 2 mps 730 mmHg 91%
    21:00 -2°C° 0.2 mm 2 mps 730 mmHg 92%
    22:00 -2°C° 0.2 mm 2 mps 730 mmHg 93%
    23:00 -2°C° 0.2 mm 2 mps 730 mmHg 94%

    20 December, Wednesday

    Time Temperature Precipitation Wind Pressure Humidity
    00:00 0°C° 0.2 mm 1 mps 729 mmHg 94%
    01:00 0°C° 0.2 mm 1 mps 729 mmHg 95%
    02:00 0°C° 0.1 mm 1 mps 729 mmHg 95%
    03:00 0°C° 0.1 mm 1 mps 729 mmHg 96%
    04:00 0°C° 0.1 mm 1 mps 729 mmHg 96%
    05:00 -1°C° 0 mm 1 mps 729 mmHg 96%
    06:00 -1°C° 0 mm 1 mps 729 mmHg 95%
    07:00 -1°C° 0 mm 1 mps 730 mmHg 95%
    08:00 -2°C° 0 mm 0 mps 730 mmHg 94%
    09:00 -1°C° 0 mm 0 mps 730 mmHg 92%
    10:00 -1°C° 0 mm 0 mps 731 mmHg 90%
    11:00 -1°C° 0 mm 0 mps 731 mmHg 89%
    12:00 +1°C° 0 mm 1 mps 731 mmHg 88%
    13:00 +1°C° 0 mm 1 mps 731 mmHg 87%
    14:00 0°C° 0 mm 1 mps 731 mmHg 88%
    15:00 -1°C° 0 mm 1 mps 731 mmHg 89%
    16:00 -1°C° 0 mm 1 mps 731 mmHg 91%
    17:00 -2°C° 0 mm 1 mps 731 mmHg 91%
    18:00 -4°C° 0 mm 2 mps 731 mmHg 91%
    19:00 -4°C° 0 mm 2 mps 731 mmHg 91%
    20:00 -4°C° 0 mm 2 mps 731 mmHg 91%
    21:00 -3°C° 0 mm 2 mps 731 mmHg 90%
    22:00 -3°C° 0 mm 2 mps 731 mmHg 90%
    23:00 -3°C° 0.3 mm 2 mps 731 mmHg 90%

    21 December, Thursday

    Time Temperature Precipitation Wind Pressure Humidity
    00:00 -2°C° 0.3 mm 2 mps 730 mmHg 91%
    01:00 -2°C° 0.3 mm 3 mps 730 mmHg 91%
    02:00 -1°C° 0.7 mm 3 mps 729 mmHg 92%
    03:00 -1°C° 0.7 mm 3 mps 729 mmHg 93%
    04:00 -1°C° 0.7 mm 3 mps 729 mmHg 94%
    05:00 0°C° 1 mm 3 mps 728 mmHg 95%
    06:00 0°C° 1 mm 3 mps 728 mmHg 95%
    07:00 0°C° 1 mm 3 mps 728 mmHg 96%
    08:00 0°C° 0.9 mm 3 mps 728 mmHg 97%
    09:00 +1°C° 0.9 mm 3 mps 727 mmHg 97%
    10:00 +1°C° 0.9 mm 3 mps 727 mmHg 97%
    11:00 +1°C° 0.4 mm 3 mps 727 mmHg 97%
    12:00 +2°C° 0.4 mm 3 mps 727 mmHg 98%
    13:00 +2°C° 0.4 mm 3 mps 727 mmHg 98%
    14:00 +2°C° 0.2 mm 3 mps 727 mmHg 97%
    15:00 +2°C° 0.2 mm 3 mps 727 mmHg 97%
    16:00 +3°C° 0.2 mm 2 mps 727 mmHg 96%
    17:00 +3°C° 0.2 mm 2 mps 727 mmHg 96%
    18:00 +3°C° 0.2 mm 2 mps 727 mmHg 96%
    19:00 +3°C° 0.2 mm 2 mps 727 mmHg 96%
    20:00 +3°C° 0.4 mm 2 mps 727 mmHg 96%
    21:00 +2°C° 0.4 mm 3 mps 727 mmHg 96%
    22:00 +2°C° 0.4 mm 3 mps 727 mmHg 96%
    23:00 +2°C° 0.3 mm 3 mps 726 mmHg 95%

    22 December, Friday

    Time Temperature Precipitation Wind Pressure Humidity
    00:00 +2°C° 0.3 mm 3 mps 725 mmHg 95%
    01:00 +1°C° 0.3 mm 4 mps 725 mmHg 95%
    02:00 +2°C° 0.3 mm 5 mps 724 mmHg 93%
    03:00 +2°C° 0.3 mm 6 mps 723 mmHg 91%
    04:00 +2°C° 0.3 mm 7 mps 723 mmHg 89%
    05:00 +2°C° 0.1 mm 7 mps 722 mmHg 88%
    06:00 +2°C° 0.1 mm 7 mps 722 mmHg 87%
    07:00 +2°C° 0.1 mm 6 mps 721 mmHg 86%
    08:00 +2°C° 0.7 mm 7 mps 721 mmHg 88%
    09:00 +2°C° 0.7 mm 7 mps 721 mmHg 89%
    10:00 +2°C° 0.7 mm 7 mps 721 mmHg 90%
    11:00 0°C° 0.3 mm 7 mps 722 mmHg 87%
    12:00 0°C° 0.3 mm 8 mps 723 mmHg 83%
    13:00 -1°C° 0.3 mm 8 mps 723 mmHg 79%
    14:00 -1°C° 0 mm 8 mps 724 mmHg 79%
    15:00 -1°C° 0 mm 7 mps 725 mmHg 79%
    16:00 -2°C° 0 mm 7 mps 725 mmHg 78%
    17:00 -2°C° 0 mm 7 mps 726 mmHg 79%
    18:00 -2°C° 0 mm 7 mps 726 mmHg 80%
    19:00 -2°C° 0 mm 7 mps 727 mmHg 81%
    20:00 -2°C° 0 mm 6 mps 727 mmHg 82%
    21:00 -2°C° 0 mm 6 mps 727 mmHg 83%
    22:00 -2°C° 0 mm 6 mps 727 mmHg 84%
    23:00 -1°C° 0.2 mm 5 mps 726 mmHg 85%
    Show more